Location: *
(41.7492°S, 135.4150°W)
Time: 13:41:19
(UTC+00:00)

ITAMSAT 1 - Visible Passes

Search period start: 26 June 2022 00:00
Search period end: 06 July 2022 00:00
Orbit: 783 x 796 km, 98.9° (Epoch: 25 June)

Date Brightness Start Highest point End Pass type
(mag) Time Alt. Az. Time Alt. Az. Time Alt. Az.
26 Jun 10.3 14:28:34 10° E 14:31:13 14° ESE 14:33:55 10° SSE visible
27 Jun 8.5 15:35:21 10° NNE 15:40:27 54° ESE 15:45:37 10° S visible
28 Jun 9.5 15:06:36 10° NE 15:11:07 30° ESE 15:15:39 10° S visible
29 Jun 10.2 14:38:33 10° E 14:41:54 17° ESE 14:45:14 10° SSE visible
30 Jun 8.1 15:46:01 10° NNE 15:51:14 67° ESE 15:56:30 10° S visible
01 Jul 9.2 15:17:03 10° NE 15:21:50 36° ESE 15:26:39 10° S visible
02 Jul 10.0 14:48:43 10° ENE 14:52:34 21° ESE 14:56:25 10° SSE visible
03 Jul 10.4 14:21:36 10° ESE 14:23:26 12° ESE 14:25:16 10° SE visible
03 Jul 7.9 15:56:45 10° NNE 16:02:00 82° ESE 16:07:20 10° SSW visible
04 Jul 8.8 15:27:35 10° NE 15:32:34 45° ESE 15:37:35 10° S visible
05 Jul 9.7 14:59:01 10° ENE 15:03:15 25° ESE 15:07:31 10° S visible
